Regional Weather Roundup
Issued by NWS Newport/Morehead, NC

Home | Current Version | Previous Version | Text Only | Print | Product List | Glossary On
Versions: 1 2 3 4 5 6 7 8 9 10 11 12 13 14 15 16 17 18 19 20 21 22 23 24 25 26 27 28 29 30 31 32 33 34 35 36 37 38 39 40 41 42 43 44 45 46 47 48 49 50
000
ASUS42 KMHX 012325
RWRMHX
WEATHER ROUNDUP FOR EASTERN NORTH CAROLINA
NATIONAL WEATHER SERVICE NEWPORT/MOREHEAD CITY NC
700 PM EDT WED JUL 01 2015

NOTE: "FAIR" INDICATES FEW OR NO CLOUDS BELOW 12,000 FEET
WITH NO SIGNIFICANT WEATHER AND/OR OBSTRUCTIONS TO VISIBILITY

NCZ015>017-031-032-045>047-102-103-020000-
NORTH COAST

CITY           SKY/WX    TMP DP  RH WIND       PRES   REMARKS
EDENTON          N/A     84  70  61 SW6       29.91R
ELIZABETH CITY SUNNY     83  69  62 SW5       29.90R
KITTY HAWK     CLEAR     86  68  54 SW7       29.90S
MANTEO         MOSUNNY   84  75  74 SW14      29.91S

$$

NCZ045>047-081-094-103-104-020000-
CENTRAL COAST

CITY           SKY/WX    TMP DP  RH WIND       PRES   REMARKS
FRISCO         SUNNY     80  74  81 SW10G20   29.93S
SWANQUARTER      N/A     84 N/A N/A SW15      29.88S

$$

NCZ095-097-098-100-101-020000-
SOUTHERN COAST

CITY           SKY/WX    TMP DP  RH WIND       PRES   REMARKS
BEAUFORT       PTSUNNY   80  75  84 SW17      29.94S
CEDAR ISLAND     N/A     82 N/A N/A SW12      29.97S
JACKSONVILLE   SUNNY     83  72  69 W7        29.93R
PINEY ISLAND   CLEAR    N/A N/A N/A S13       29.93R
WILMINGTON     SUNNY     82  73  74 S10       29.94S


$$

NCZ011>013-027>030-043-044-078>080-089-090>093-098-020000-
COASTAL PLAIN

CITY           SKY/WX    TMP DP  RH WIND       PRES   REMARKS
AHOSKIE        SUNNY     79  73  80 CALM      29.91R
CLINTON        SUNNY     80  73  79 SW3       29.95R
ELIZABETHTOWN  SUNNY     82  72  72 CALM      29.96R
GOLDSBORO      SUNNY     83  71  68 SW6       29.92R
GREENVILLE     SUNNY     82  72  69 SW7       29.94R
HAVELOCK       SUNNY     82  73  74 S9        29.94S
KENANSVILLE    SUNNY     80  70  72 SW3       29.95S
KINSTON        SUNNY     82  70  65 S7        29.94R
NEW BERN       SUNNY     84  73  69 W7        29.93S
RICHLANDS      SUNNY     81  70  69 SW6       29.95R
ROCKY MOUNT    SUNNY     85  69  58 S7        29.91R
WASHINGTON     SUNNY     83  71  67 SW10      29.93R
WHITEVILLE     SUNNY     82  72  71 SW3       29.95R

$$

AMZ130-135-150-152-154-156-158-170-250-252-270-ANZ085-086-088-633-658-670-020000-
MARINE OBSERVATIONS

STATION/POSITION TIME  TEMP    WIND        PRES    WAVE   SWELL
                       AIR SEA DIR/SP/G            HT/PER HT/PER
                 (UTC) (F)     (DEG/KT/KT) (MB)    (FT/S) (FT/S)
CHESAPEAKE LIGHT 2300   82     230/ 14/ 15 1012.5
64 E VA BEACH    2250   79 77  200/ 10/ 14 1012.0    5/ 7   5/ 7
DUCK             2300   83 67  230/  7/  9 1011.7
2 E DUCK         2211      74                N/A     2/ 8
OREGON INLET     2300   81 84  200/ 15/ 18 1012.9
13E OREGON INLT  2300      73                N/A     4/ 7
HATTERAS CG      2300   79 82  200/ 11/ 17 1013.2
DIAMOND BUOY     2250   81 83  220/ 17/ 21 1013.3    5/ 8   3/ 8
CAPE LOOKOUT     2300   79     220/ 11/ 14 1013.7
BEAUFORT LAB     2300   80 81  220/  8/ 13 1013.1
30 SE NEW RVR IN 2208   80 81  230/ 17/ 23 1014.5
27 SE WRIGHTSVLE 2300      80  240/ 17/ 19   N/A
5 SE WRIGHTSVLE  NOT AVBL
225 S CAPE HAT   2250   82 80  230/ 17/ 21 1017.9    6/ 7   2/12
41 SE CHARLESTON 2250   82 82  220/ 16/ 19 1015.0    5/ 6   2/ 8

$$



USA.gov is the U.S. government's official web portal to all federal, state and local government web resources and services.